Tracking 19575 objects as of 19-Feb-2019
HD Live streaming from Space Station
objects crossing your sky now

OPS 8068

Track OPS 8068 now!
10-day predictions
OPS 8068 is classified as:


NORAD ID: 1580
Int'l Code: 1965-072A
Perigee: 638.3 km
Apogee: 976.0 km
Inclination: 98.5 °
Period: 100.9 minutes
Semi major axis: 7178 km
RCS: 0.631 m2 (medium)
Launch date: September 10, 1965
Source: United States (US)
Launch site: AIR FORCE WESTERN TEST RANGE (AFWTR)
aabbcc
Your satellite tracking list
Your tracking list is empty




NASA's NSSDC Master Catalog

Two Line Element Set (TLE):
1  1580U 65072A   19049.71948191  .00000029  00000-0  23691-4 0  9993
2  1580  98.4632 276.6932 0235201  22.5444 338.5869 14.27525961771680
Source of the keplerian elements: AFSPC